AUL252 UMKK-UUEE

Flight info

Callsign AUL252
Flight time N/A
Altitude 35000
Route PELUG3M PELUG DCT OTVOV DCT KEDUX DCT PIVAX DCT PIRUX DCT PISIM DCT PIDIN DCT ARANS/K0846F350 DCT PISIS DCT MIGTU T73 NAMIN NAMIN3F
Aircraft B738/M-SDE2E3FGHIRWXY/LB1

Departure

Time N/A
Airport Khrabrovo Airport (UMKK)

Arrival

Time 2026-05-06 18:36
Airport Sheremetyevo International Airport (UUEE)
Time Latitude Longitude Altitude Speed Heading
2026-05-06 16:42 55.77391 20.00412 25218 ft 461 kts 327°
2026-05-06 16:43 55.80211 19.97678 25591 ft 463 kts 327°
2026-05-06 16:43 55.83048 19.94922 25955 ft 465 kts 327°
2026-05-06 16:43 55.85859 19.92187 26293 ft 467 kts 327°
2026-05-06 16:43 55.88719 19.89400 26629 ft 470 kts 327°
2026-05-06 16:44 55.91590 19.86597 26956 ft 472 kts 327°
2026-05-06 16:44 55.94472 19.83778 27278 ft 474 kts 327°
2026-05-06 16:44 55.97367 19.80942 27602 ft 476 kts 327°
2026-05-06 16:44 56.00273 19.78090 27913 ft 478 kts 327°
2026-05-06 16:45 56.03194 19.75219 28212 ft 480 kts 327°
2026-05-06 16:45 56.06122 19.72336 28553 ft 480 kts 327°
2026-05-06 16:45 56.09047 19.69450 28999 ft 480 kts 329°
2026-05-06 16:45 56.11968 19.66564 29427 ft 479 kts 330°
2026-05-06 16:46 56.14877 19.63686 29925 ft 476 kts 330°
2026-05-06 16:46 56.17793 19.60864 30313 ft 476 kts 333°
2026-05-06 16:46 56.20932 19.58957 30566 ft 480 kts 349°
2026-05-06 16:46 56.24260 19.58625 30863 ft 482 kts
2026-05-06 16:47 56.27562 19.59630 31193 ft 482 kts 14°
2026-05-06 16:47 56.30815 19.61140 31475 ft 483 kts 14°
2026-05-06 16:47 56.34073 19.62647 31706 ft 484 kts 14°
2026-05-06 16:47 56.37347 19.64139 31992 ft 485 kts 14°
2026-05-06 16:48 56.40619 19.65601 32321 ft 485 kts 14°
2026-05-06 16:48 56.43896 19.67042 32622 ft 485 kts 14°
2026-05-06 16:48 56.47182 19.68473 32886 ft 486 kts 13°
2026-05-06 16:48 56.50474 19.69901 33151 ft 487 kts 13°
2026-05-06 16:49 56.53766 19.71329 33446 ft 487 kts 13°
2026-05-06 16:49 56.57062 19.72761 33721 ft 487 kts 13°
2026-05-06 16:49 56.60314 19.74179 33969 ft 488 kts 13°
2026-05-06 16:49 56.63625 19.75625 34186 ft 488 kts 14°
2026-05-06 16:50 56.66926 19.77071 34454 ft 487 kts 14°
2026-05-06 16:50 56.70224 19.78519 34686 ft 488 kts 13°
2026-05-06 16:50 56.73525 19.79971 34884 ft 489 kts 13°
2026-05-06 16:51 56.80174 19.82903 34923 ft 493 kts 13°
2026-05-06 16:51 56.86811 19.85839 34922 ft 488 kts 13°
2026-05-06 16:52 56.93399 19.88763 34941 ft 486 kts 13°
2026-05-06 16:52 56.99959 19.91692 34944 ft 484 kts 14°
2026-05-06 16:53 57.06387 19.95138 34950 ft 484 kts 17°
2026-05-06 16:53 57.12792 19.98964 34951 ft 484 kts 18°
2026-05-06 16:54 57.19206 20.02786 34953 ft 485 kts 17°
2026-05-06 16:54 57.25657 20.06568 34957 ft 487 kts 17°
2026-05-06 16:55 57.32125 20.10342 34957 ft 488 kts 17°
2026-05-06 16:55 57.38617 20.14140 34958 ft 490 kts 17°
2026-05-06 16:56 57.45121 20.17962 34958 ft 491 kts 17°
2026-05-06 16:56 57.51648 20.21814 34969 ft 493 kts 17°
2026-05-06 16:57 57.58201 20.25711 34972 ft 495 kts 17°
2026-05-06 16:57 57.64784 20.29618 34981 ft 497 kts 17°
2026-05-06 16:58 57.71391 20.33554 34976 ft 500 kts 17°
2026-05-06 16:58 57.78026 20.37530 34984 ft 502 kts 17°
2026-05-06 16:59 57.84690 20.41541 34985 ft 503 kts 17°
2026-05-06 16:59 57.91325 20.45549 34984 ft 505 kts 17°
2026-05-06 17:00 57.98015 20.49606 34991 ft 505 kts 16°
2026-05-06 17:00 58.04723 20.53689 34993 ft 506 kts 16°
2026-05-06 17:01 58.11429 20.57786 35003 ft 506 kts 16°
2026-05-06 17:01 58.18126 20.61895 34999 ft 506 kts 16°
2026-05-06 17:02 58.24825 20.66023 35004 ft 506 kts 15°
2026-05-06 17:02 58.31526 20.70167 35012 ft 506 kts 16°
2026-05-06 17:03 58.38184 20.74300 35005 ft 507 kts 16°
2026-05-06 17:03 58.44888 20.78479 35006 ft 507 kts 16°
2026-05-06 17:04 58.51601 20.82680 35011 ft 508 kts 15°
2026-05-06 17:04 58.58321 20.86902 35016 ft 509 kts 15°
2026-05-06 17:05 58.65058 20.91152 35014 ft 510 kts 15°
2026-05-06 17:05 58.71799 20.95422 35020 ft 510 kts 15°
2026-05-06 17:06 58.78508 20.99688 35024 ft 511 kts 15°
2026-05-06 17:06 58.85270 21.04006 35022 ft 512 kts 15°
2026-05-06 17:07 58.92030 21.08339 35023 ft 512 kts 15°
2026-05-06 17:07 58.98793 21.12691 35020 ft 512 kts 15°
2026-05-06 17:07 59.02094 21.15317 35033 ft 517 kts 27°
2026-05-06 17:08 59.04981 21.19503 35041 ft 520 kts 44°
2026-05-06 17:08 59.07285 21.24914 35015 ft 520 kts 59°
2026-05-06 17:08 59.08965 21.31109 35045 ft 517 kts 67°
2026-05-06 17:09 59.12082 21.43745 35021 ft 518 kts 66°
2026-05-06 17:09 59.15256 21.56361 35014 ft 519 kts 66°
2026-05-06 17:10 59.18470 21.68943 35010 ft 518 kts 66°
2026-05-06 17:10 59.21685 21.81529 35034 ft 518 kts 65°
2026-05-06 17:11 59.24891 21.94169 35032 ft 520 kts 66°
2026-05-06 17:11 59.28087 22.06857 35026 ft 521 kts 66°
2026-05-06 17:12 59.31258 22.19521 35026 ft 521 kts 66°
2026-05-06 17:12 59.34442 22.32315 35021 ft 522 kts 66°
2026-05-06 17:13 59.37618 22.45144 35020 ft 523 kts 66°
2026-05-06 17:13 59.40780 22.57996 34996 ft 523 kts 66°
2026-05-06 17:14 59.43401 22.68700 35015 ft 523 kts 66°
2026-05-06 17:14 59.46544 22.81606 35023 ft 524 kts 66°
2026-05-06 17:15 59.50188 22.96668 35025 ft 524 kts 66°
2026-05-06 17:15 59.52791 23.07475 35020 ft 524 kts 66°
2026-05-06 17:16 59.55787 23.20556 35016 ft 522 kts 73°
2026-05-06 17:16 59.57971 23.34176 35018 ft 520 kts 77°
2026-05-06 17:17 59.60024 23.47882 35002 ft 520 kts 76°
2026-05-06 17:17 59.62135 23.61534 35007 ft 519 kts 76°
2026-05-06 17:18 59.64277 23.75154 35015 ft 519 kts 76°
2026-05-06 17:18 59.66405 23.88759 35016 ft 518 kts 76°
2026-05-06 17:19 59.68519 24.02418 35018 ft 518 kts 76°
2026-05-06 17:19 59.70612 24.16064 35038 ft 518 kts 76°
2026-05-06 17:20 59.72695 24.29754 34996 ft 519 kts 76°
2026-05-06 17:20 59.74763 24.43431 35013 ft 518 kts 76°
2026-05-06 17:21 59.76678 24.57209 35017 ft 517 kts 79°
2026-05-06 17:21 59.78367 24.70985 35016 ft 517 kts 79°
2026-05-06 17:22 59.80066 24.84875 35017 ft 517 kts 79°
2026-05-06 17:22 59.81788 24.98739 35016 ft 517 kts 79°
2026-05-06 17:23 59.83512 25.12635 34982 ft 519 kts 79°
2026-05-06 17:23 59.85223 25.26569 35010 ft 519 kts 79°
2026-05-06 17:24 59.86921 25.40544 35019 ft 520 kts 79°
2026-05-06 17:24 59.88606 25.54558 35018 ft 521 kts 79°
2026-05-06 17:25 59.90281 25.68619 35018 ft 522 kts 79°
2026-05-06 17:25 59.91943 25.82708 35016 ft 522 kts 79°
2026-05-06 17:26 59.93592 25.96803 34980 ft 522 kts 79°
2026-05-06 17:26 59.95211 26.10810 35021 ft 522 kts 79°
2026-05-06 17:27 59.96829 26.24938 35027 ft 522 kts 80°
2026-05-06 17:27 59.98439 26.39096 35022 ft 523 kts 80°
2026-05-06 17:28 60.00034 26.53257 35022 ft 523 kts 80°
2026-05-06 17:28 60.01615 26.67443 35024 ft 523 kts 80°
2026-05-06 17:29 60.03184 26.81649 35024 ft 523 kts 80°
2026-05-06 17:29 60.04687 26.95871 35021 ft 521 kts 84°
2026-05-06 17:29 60.04984 27.03059 35044 ft 516 kts 96°
2026-05-06 17:30 60.04752 27.10178 35040 ft 513 kts 100°
2026-05-06 17:30 60.04145 27.24417 35029 ft 515 kts 100°
2026-05-06 17:31 60.03598 27.38637 35029 ft 517 kts 99°
2026-05-06 17:31 60.03080 27.52987 35024 ft 518 kts 99°
2026-05-06 17:32 60.02554 27.67372 35021 ft 519 kts 99°
2026-05-06 17:32 60.02009 27.81749 35029 ft 519 kts 99°
2026-05-06 17:33 60.01442 27.96173 35026 ft 520 kts 99°
2026-05-06 17:33 60.00864 28.10478 35027 ft 520 kts 99°
2026-05-06 17:34 60.00266 28.24893 35026 ft 520 kts 99°
2026-05-06 17:34 59.99654 28.39276 35023 ft 518 kts 99°
2026-05-06 17:35 59.99028 28.53624 35030 ft 518 kts 99°
2026-05-06 17:35 59.98391 28.67943 35031 ft 518 kts 99°
2026-05-06 17:36 59.97025 28.89284 35040 ft 512 kts 109°
2026-05-06 17:36 59.95301 29.03079 35025 ft 512 kts 110°
2026-05-06 17:37 59.93578 29.16805 35034 ft 514 kts 109°
2026-05-06 17:37 59.91886 29.30781 35033 ft 516 kts 109°
2026-05-06 17:38 59.90225 29.44614 35035 ft 517 kts 109°
2026-05-06 17:38 59.88533 29.58565 35029 ft 518 kts 109°
2026-05-06 17:39 59.86822 29.72497 35025 ft 517 kts 109°
2026-05-06 17:39 59.85096 29.86409 35024 ft 517 kts 109°
2026-05-06 17:40 59.83361 30.00285 35022 ft 517 kts 109°
2026-05-06 17:40 59.81610 30.14126 35019 ft 516 kts 110°
2026-05-06 17:41 59.79824 30.27917 34981 ft 515 kts 110°
2026-05-06 17:41 59.78027 30.41654 35019 ft 514 kts 110°
2026-05-06 17:42 59.76222 30.55370 35027 ft 513 kts 110°
2026-05-06 17:42 59.74408 30.69063 35023 ft 513 kts 110°
2026-05-06 17:43 59.72582 30.82723 35023 ft 513 kts 110°
2026-05-06 17:43 59.70755 30.96284 35004 ft 513 kts 110°
2026-05-06 17:44 59.68900 31.09935 35023 ft 513 kts 110°
2026-05-06 17:44 59.66346 31.22904 35034 ft 500 kts 126°
2026-05-06 17:45 59.62927 31.34873 35026 ft 501 kts 126°
2026-05-06 17:45 59.59549 31.46979 35023 ft 503 kts 125°
2026-05-06 17:46 59.56209 31.59115 35016 ft 504 kts 125°
2026-05-06 17:46 59.52857 31.71249 35025 ft 505 kts 125°
2026-05-06 17:47 59.49460 31.83371 35024 ft 504 kts 127°
2026-05-06 17:47 59.47495 31.89005 35013 ft 495 kts 138°
2026-05-06 17:47 59.45169 31.93939 35038 ft 490 kts 142°
2026-05-06 17:48 59.40600 32.03834 34991 ft 494 kts 138°
2026-05-06 17:48 59.36070 32.13980 35010 ft 494 kts 139°
2026-05-06 17:49 59.31524 32.24075 35025 ft 494 kts 139°
2026-05-06 17:49 59.26961 32.34151 35016 ft 494 kts 139°
2026-05-06 17:50 59.22391 32.44202 35022 ft 494 kts 139°
2026-05-06 17:50 59.17815 32.54225 35015 ft 493 kts 139°
2026-05-06 17:51 59.13239 32.64204 35014 ft 493 kts 139°
2026-05-06 17:51 59.08662 32.74143 35014 ft 493 kts 139°
2026-05-06 17:52 59.04104 32.83998 35013 ft 493 kts 139°
2026-05-06 17:52 58.99510 32.93890 35013 ft 493 kts 139°
2026-05-06 17:53 58.94912 33.03753 35021 ft 493 kts 139°
2026-05-06 17:53 58.90303 33.13602 35013 ft 493 kts 139°
2026-05-06 17:54 58.85683 33.23411 35011 ft 493 kts 139°
2026-05-06 17:54 58.81059 33.33177 35015 ft 493 kts 140°
2026-05-06 17:55 58.76435 33.42912 35009 ft 492 kts 139°
2026-05-06 17:55 58.71810 33.52621 35007 ft 492 kts 139°
2026-05-06 17:56 58.67186 33.62292 35003 ft 491 kts 139°
2026-05-06 17:56 58.62561 33.71918 35003 ft 490 kts 139°
2026-05-06 17:57 58.57935 33.81507 35008 ft 489 kts 140°
2026-05-06 17:57 58.53341 33.90991 35000 ft 488 kts 139°
2026-05-06 17:58 58.48712 34.00507 35017 ft 488 kts 139°
2026-05-06 17:58 58.44089 34.09972 35004 ft 487 kts 139°
2026-05-06 17:59 58.39451 34.19430 35001 ft 487 kts 140°
2026-05-06 17:59 58.34807 34.28858 34987 ft 487 kts 139°
2026-05-06 18:00 58.30162 34.38256 34998 ft 487 kts 139°
2026-05-06 18:00 58.25542 34.47572 35008 ft 488 kts 139°
2026-05-06 18:01 58.20872 34.56939 35008 ft 488 kts 140°
2026-05-06 18:01 58.15870 34.65488 35012 ft 482 kts 147°
2026-05-06 18:02 58.10649 34.73488 34996 ft 482 kts 147°
2026-05-06 18:02 58.06316 34.80171 34996 ft 483 kts 146°
2026-05-06 18:03 58.01129 34.88275 34999 ft 484 kts 146°
2026-05-06 18:03 57.95945 34.96397 34994 ft 484 kts 146°
2026-05-06 18:04 57.90763 35.04488 34944 ft 484 kts 146°
2026-05-06 18:04 57.85586 35.12536 34985 ft 482 kts 146°
2026-05-06 18:05 57.80419 35.20531 34988 ft 481 kts 146°
2026-05-06 18:05 57.75255 35.28491 34990 ft 480 kts 146°
2026-05-06 18:06 57.70129 35.36366 34983 ft 480 kts 146°
2026-05-06 18:06 57.64968 35.44270 34971 ft 479 kts 146°
2026-05-06 18:07 57.59802 35.52145 34977 ft 479 kts 146°
2026-05-06 18:07 57.54646 35.59984 34978 ft 479 kts 146°
2026-05-06 18:08 57.49486 35.67817 34978 ft 479 kts 146°
2026-05-06 18:08 57.44313 35.75647 34975 ft 479 kts 146°
2026-05-06 18:09 57.39189 35.83385 34938 ft 462 kts 146°
2026-05-06 18:09 57.36739 35.87081 34950 ft 447 kts 146°
2026-05-06 18:09 57.34398 35.90606 34930 ft 433 kts 146°
2026-05-06 18:10 57.32083 35.94079 34814 ft 423 kts 146°
2026-05-06 18:10 57.29808 35.97478 34499 ft 419 kts 146°
2026-05-06 18:10 57.27543 36.00853 34040 ft 419 kts 147°
2026-05-06 18:10 57.25252 36.04256 33147 ft 427 kts 146°
2026-05-06 18:11 57.22898 36.07743 32029 ft 440 kts 146°
2026-05-06 18:11 57.20470 36.11341 30767 ft 456 kts 146°
2026-05-06 18:11 57.17960 36.15065 29465 ft 469 kts 146°
2026-05-06 18:11 57.15398 36.18869 28168 ft 477 kts 146°
2026-05-06 18:12 57.12795 36.22730 26922 ft 483 kts 146°
2026-05-06 18:12 57.10165 36.26625 25744 ft 487 kts 146°
2026-05-06 18:12 57.07522 36.30531 24791 ft 486 kts 146°
2026-05-06 18:12 57.04906 36.34384 24102 ft 478 kts 146°
2026-05-06 18:13 57.02328 36.38164 23438 ft 470 kts 146°
2026-05-06 18:13 56.99781 36.41867 22605 ft 464 kts 146°
2026-05-06 18:13 56.97262 36.45511 21773 ft 459 kts 146°
2026-05-06 18:13 56.94760 36.49125 20931 ft 455 kts 146°
2026-05-06 18:14 56.92294 36.52689 20142 ft 450 kts 146°
2026-05-06 18:14 56.89874 36.56181 19401 ft 446 kts 146°
2026-05-06 18:14 56.87454 36.59668 18676 ft 441 kts 146°
2026-05-06 18:14 56.85055 36.63120 17918 ft 437 kts 146°
2026-05-06 18:15 56.82676 36.66538 17094 ft 433 kts 146°
2026-05-06 18:15 56.80322 36.69916 16505 ft 425 kts 146°
2026-05-06 18:15 56.78045 36.73185 16352 ft 407 kts 146°
2026-05-06 18:15 56.75860 36.76314 16223 ft 391 kts 147°
2026-05-06 18:16 56.73768 36.79321 16119 ft 377 kts 144°
2026-05-06 18:16 56.72070 36.82898 15949 ft 375 kts 121°
2026-05-06 18:16 56.71164 36.87288 15963 ft 367 kts 114°
2026-05-06 18:16 56.69873 36.91100 15925 ft 344 kts 142°
2026-05-06 18:17 56.67927 36.93295 15937 ft 321 kts 163°
2026-05-06 18:17 56.65846 36.94746 15925 ft 320 kts 169°
2026-05-06 18:17 56.63699 36.95754 15559 ft 321 kts 173°
2026-05-06 18:17 56.61487 36.96620 14914 ft 329 kts 174°
2026-05-06 18:18 56.59222 36.97492 14312 ft 335 kts 174°
2026-05-06 18:18 56.56943 36.98402 13880 ft 335 kts 173°
2026-05-06 18:18 56.54679 36.99335 13475 ft 333 kts 173°
2026-05-06 18:18 56.52431 37.00281 13051 ft 331 kts 173°
2026-05-06 18:19 56.50195 37.01231 12632 ft 329 kts 173°
2026-05-06 18:19 56.47977 37.02178 12216 ft 327 kts 173°
2026-05-06 18:19 56.45764 37.03122 11810 ft 325 kts 173°
2026-05-06 18:19 56.43566 37.04058 11392 ft 324 kts 173°
2026-05-06 18:20 56.41378 37.04988 11047 ft 321 kts 172°
2026-05-06 18:20 56.39265 37.06137 10728 ft 325 kts 158°
2026-05-06 18:20 56.37496 37.08704 10462 ft 329 kts 137°
2026-05-06 18:20 56.35886 37.11594 10149 ft 325 kts 141°
2026-05-06 18:21 56.34233 37.14328 9937 ft 318 kts 142°
2026-05-06 18:21 56.32635 37.16953 9938 ft 305 kts 142°
2026-05-06 18:21 56.31055 37.19549 9371 ft 313 kts 142°
2026-05-06 18:21 56.29460 37.22181 9004 ft 308 kts 142°
2026-05-06 18:22 56.27908 37.24748 8691 ft 298 kts 142°
2026-05-06 18:22 56.26404 37.27233 8392 ft 289 kts 142°
2026-05-06 18:22 56.24845 37.29409 8099 ft 278 kts 160°
2026-05-06 18:22 56.23032 37.30315 7893 ft 268 kts 174°
2026-05-06 18:23 56.21208 37.31128 7613 ft 268 kts 171°
2026-05-06 18:23 56.19440 37.32016 7352 ft 259 kts 172°
2026-05-06 18:23 56.17709 37.32226 7093 ft 242 kts 202°
2026-05-06 18:23 56.16333 37.30772 6936 ft 224 kts 230°
2026-05-06 18:24 56.15393 37.28600 6722 ft 218 kts 244°
2026-05-06 18:24 56.14891 37.26059 6548 ft 217 kts 258°
2026-05-06 18:24 56.14532 37.23403 6353 ft 220 kts 257°
2026-05-06 18:24 56.14157 37.20742 6150 ft 220 kts 257°
2026-05-06 18:25 56.13785 37.18107 5940 ft 221 kts 257°
2026-05-06 18:25 56.13406 37.15431 5748 ft 221 kts 257°
2026-05-06 18:25 56.13025 37.12755 5557 ft 221 kts 257°
2026-05-06 18:25 56.12643 37.10081 5357 ft 222 kts 257°
2026-05-06 18:26 56.12260 37.07397 5179 ft 222 kts 257°
2026-05-06 18:26 56.11678 37.04842 4969 ft 224 kts 232°
2026-05-06 18:26 56.10433 37.03188 4922 ft 224 kts 214°
2026-05-06 18:26 56.09113 37.01668 4792 ft 228 kts 217°
2026-05-06 18:27 56.07785 37.00073 4680 ft 231 kts 217°
2026-05-06 18:27 56.06445 36.98483 4562 ft 232 kts 216°
2026-05-06 18:27 56.05097 36.96899 4442 ft 232 kts 216°
2026-05-06 18:27 56.03748 36.95321 4319 ft 229 kts 216°
2026-05-06 18:28 56.02431 36.93786 4204 ft 222 kts 216°
2026-05-06 18:28 56.01159 36.92303 4095 ft 215 kts 215°
2026-05-06 18:28 55.99857 36.91101 3970 ft 209 kts 193°
2026-05-06 18:28 55.98488 36.91474 3921 ft 197 kts 154°
2026-05-06 18:29 55.97360 36.92735 3830 ft 186 kts 147°
2026-05-06 18:29 55.96314 36.94031 3742 ft 183 kts 146°
2026-05-06 18:29 55.95272 36.95330 3642 ft 182 kts 146°
2026-05-06 18:29 55.94252 36.96601 3543 ft 180 kts 146°
2026-05-06 18:30 55.93215 36.97890 3434 ft 179 kts 146°
2026-05-06 18:30 55.92200 36.99148 3360 ft 180 kts 146°
2026-05-06 18:30 55.91323 37.00737 3231 ft 182 kts 112°
2026-05-06 18:30 55.91322 37.02891 3159 ft 179 kts 65°
2026-05-06 18:31 55.91848 37.04908 3081 ft 182 kts 74°
2026-05-06 18:31 55.91984 37.07114 3016 ft 176 kts 84°
2026-05-06 18:31 55.92323 37.09156 3015 ft 169 kts 64°
2026-05-06 18:31 55.92684 37.11172 3000 ft 170 kts 80°
2026-05-06 18:32 55.92908 37.13190 2984 ft 163 kts 73°
2026-05-06 18:32 55.93220 37.15125 3001 ft 163 kts 73°
2026-05-06 18:32 55.93517 37.17084 3013 ft 164 kts 74°
2026-05-06 18:32 55.93813 37.19085 2856 ft 168 kts 75°
2026-05-06 18:33 55.94102 37.21048 2678 ft 160 kts 74°
2026-05-06 18:33 55.94368 37.22854 2446 ft 145 kts 75°
2026-05-06 18:33 55.94616 37.24538 2254 ft 134 kts 75°
2026-05-06 18:33 55.94852 37.26129 2090 ft 133 kts 74°
2026-05-06 18:34 55.95079 37.27738 1909 ft 133 kts 75°
2026-05-06 18:34 55.95304 37.29335 1736 ft 131 kts 74°
2026-05-06 18:34 55.95538 37.30902 1583 ft 132 kts 73°
2026-05-06 18:34 55.95779 37.32483 1401 ft 133 kts 74°
2026-05-06 18:35 55.96015 37.34075 1224 ft 136 kts 74°
2026-05-06 18:35 55.96273 37.35692 1041 ft 135 kts 73°
2026-05-06 18:35 55.96515 37.37314 837 ft 134 kts 74°
2026-05-06 18:35 55.96758 37.38927 676 ft 134 kts 75°
2026-05-06 18:36 55.96998 37.40519 642 ft 127 kts 77°
2026-05-06 18:36 55.97182 37.41761 639 ft 74 kts 75°
2026-05-06 18:36 55.97296 37.42519 640 ft 59 kts 75°
2026-05-06 18:36 55.97363 37.42915 640 ft 21 kts 46°
2026-05-06 18:37 55.97479 37.42915 639 ft 5 kts 345°
2026-05-06 18:37 55.97480 37.42914 639 ft 0 kts 345°
2026-05-06 18:38 55.97483 37.42913 639 ft 1 kts 345°
2026-05-06 18:39 55.97501 37.42905 639 ft 4 kts 346°
2026-05-06 18:39 55.97542 37.42887 638 ft 8 kts 346°
2026-05-06 18:39 55.97615 37.42853 640 ft 13 kts 345°
2026-05-06 18:40 55.97760 37.42707 644 ft 12 kts 267°
2026-05-06 18:40 55.97741 37.42564 641 ft 12 kts 255°
2026-05-06 18:40 55.97719 37.42410 647 ft 13 kts 255°
2026-05-06 18:40 55.97695 37.42246 638 ft 15 kts 255°
2026-05-06 18:41 55.97665 37.42052 638 ft 16 kts 255°
2026-05-06 18:41 55.97635 37.41847 638 ft 18 kts 255°
2026-05-06 18:41 55.97602 37.41627 642 ft 19 kts 255°
2026-05-06 18:41 55.97566 37.41391 640 ft 20 kts 255°
2026-05-06 18:42 55.97546 37.41203 645 ft 12 kts 284°
2026-05-06 18:42 55.97602 37.41108 638 ft 11 kts 295°
2026-05-06 18:42 55.97595 37.40982 638 ft 10 kts 256°
2026-05-06 18:42 55.97608 37.40862 640 ft 10 kts 276°
2026-05-06 18:43 55.97594 37.40733 638 ft 12 kts 256°
2026-05-06 18:43 55.97629 37.40618 640 ft 12 kts 340°
2026-05-06 18:43 55.97699 37.40582 638 ft 0 kts 344°
2026-05-06 18:46 55.97702 37.40579 638 ft 2 kts 333°
2026-05-06 18:46 55.97712 37.40510 638 ft 9 kts 265°
2026-05-06 18:46 55.97696 37.40375 638 ft 13 kts 253°
2026-05-06 18:47 55.97669 37.40207 640 ft 15 kts 254°
2026-05-06 18:47 55.97640 37.40009 641 ft 17 kts 255°
2026-05-06 18:47 55.97611 37.39808 640 ft 13 kts 259°
2026-05-06 18:47 55.97667 37.39715 638 ft 12 kts 344°
2026-05-06 18:48 55.97749 37.39696 638 ft 12 kts 27°
2026-05-06 18:48 55.97781 37.39836 641 ft 13 kts 75°
2026-05-06 18:48 55.97805 37.39996 645 ft 14 kts 75°
2026-05-06 18:48 55.97812 37.40087 638 ft 6 kts 112°
2026-05-06 18:49 55.97780 37.40117 638 ft 2 kts 162°
2026-05-06 18:49 55.97774 37.40120 638 ft 0 kts 163°
2026-05-06 18:50 55.97774 37.40121 638 ft 0 kts 162°